Location: ASU Dark Sky Observatory
(36.2504°N, 81.4125°W)
Time: 01:37:37
(UTC-05:00)

Amateur Radio Satellites - All Passes

Search period start: 21 November 2017 01:07
Search period end: 22 November 2017 01:07
Location: ASU Dark Sky Observatory, 36.2504°N, 81.4125°W

Satellite Date Start Highest point End Downlink Frequencies (MHz)
Time Altitude Azimuth
DUCHIFAT 1 21 Nov 01:23:49 01:27:14 25° 290° (WNW) 01:30:38 145.980
RS-15 21 Nov 01:24:22 01:32:22 19° 23° (NNE) 01:40:07 29.354- 29.394
50 SAT 21 Nov 01:27:36 01:30:48 62° 260° (W) 01:34:02 437.505
EO-79 21 Nov 01:31:20 01:33:59 17° 293° (WNW) 01:36:38 145.935-145.965
NANOSAT C BR1 21 Nov 01:34:46 01:37:29 17° 292° (WNW) 01:40:12 145.865
BEESAT 21 Nov 01:41:01 01:42:04 11° 62° (ENE) 01:43:06 436.000
DX 1 21 Nov 01:44:04 01:48:19 54° 259° (W) 01:52:38 434.975-435.025
POLYITAN 1 21 Nov 01:47:48 01:49:03 11° 295° (WNW) 01:50:20 437.675
ITUPSAT 1 21 Nov 01:49:12 01:51:24 13° 64° (ENE) 01:53:38 437.325
Oscar 19 21 Nov 01:51:43 01:56:52 67° 102° (ESE) 02:02:00 437.125/150
PCSat 21 Nov 01:57:10 02:01:04 20° 310° (NW) 02:04:59 145.827
M-CUBED/EXP-1 PRIME 21 Nov 02:00:17 02:01:28 11° 96° (E) 02:02:40 437.505
MOZHAYETS 4 21 Nov 02:03:20 02:06:55 23° 69° (ENE) 02:10:29
Gurwin Techsat 1B 21 Nov 02:14:10 02:19:30 77° 103° (ESE) 02:24:49 435.225
BUGSAT 1 21 Nov 02:17:48 02:21:06 25° 290° (WNW) 02:24:22 437.445
AO-7 21 Nov 02:19:12 02:23:10 14° 91° (E) 02:27:07 .
nSIGHT-1 21 Nov 02:21:20 02:22:21 11° 23° (NNE) 02:23:20 .
UKube-1 21 Nov 02:27:32 02:31:14 28° 263° (W) 02:34:58 .
BEESAT 2 21 Nov 02:41:47 02:44:04 15° 109° (ESE) 02:46:22 435.950
ISS 21 Nov 03:03:21 03:05:42 18° 29° (NNE) 03:08:03 437.550
BEESAT 3 21 Nov 03:06:35 03:10:31 67° 300° (WNW) 03:14:31 437.485
BEESAT 21 Nov 03:14:23 03:19:09 75° 258° (WSW) 03:23:56 436.000
ITUPSAT 1 21 Nov 03:23:57 03:28:40 61° 258° (WSW) 03:33:25 437.325
AO-85 21 Nov 03:26:33 03:28:57 16° 109° (ESE) 03:31:22 145.980
M-CUBED/EXP-1 PRIME 21 Nov 03:31:35 03:36:08 68° 289° (WNW) 03:40:44 437.505
Oscar 19 21 Nov 03:33:04 03:35:34 14° 297° (WNW) 03:38:05 437.125/150
RS-15 21 Nov 03:36:48 03:48:25 56° 52° (NE) 03:59:20 29.354- 29.394
MOZHAYETS 4 21 Nov 03:39:54 03:43:53 29° 263° (W) 03:47:52
ITAMSAT 1 21 Nov 03:43:42 03:48:37 42° 99° (E) 03:53:31 435.822/435.867
CUBESAT XI-V 21 Nov 03:49:56 03:54:30 73° 76° (ENE) 03:59:06 437.345
nSIGHT-1 21 Nov 03:55:54 03:59:05 65° 40° (NE) 04:02:15 .
Gurwin Techsat 1B 21 Nov 03:56:36 03:58:44 12° 298° (WNW) 04:00:52 435.225
KKS-1 21 Nov 03:57:32 04:00:44 20° 67° (ENE) 04:03:56 437.445
AO-7 21 Nov 04:08:29 04:16:53 84° 107° (ESE) 04:25:16 .
BEESAT 2 21 Nov 04:17:38 04:21:24 39° 304° (NW) 04:25:14 435.950
STARS 21 Nov 04:23:20 04:25:42 14° 65° (ENE) 04:28:05 437.465
YUBILEINY 21 Nov 04:26:44 04:32:37 20° 80° (E) 04:38:30 435.215
DOVE 4 21 Nov 04:28:41 04:32:25 20° 92° (E) 04:36:01 437.250
ISS 21 Nov 04:39:11 04:42:22 49° 225° (SW) 04:45:30 437.550
AO-85 21 Nov 05:05:28 05:08:59 33° 306° (NW) 05:12:39 145.980
LilacSat-2 21 Nov 05:20:45 05:21:05 10° 92° (E) 05:21:26 437.200
ITAMSAT 1 21 Nov 05:23:54 05:27:45 21° 294° (WNW) 05:31:35 435.822/435.867
XW-2F 21 Nov 05:29:04 05:30:15 11° 92° (E) 05:31:25 145.980 - 146.000
KKS-1 21 Nov 05:32:56 05:37:00 34° 262° (W) 05:41:06 437.445
RS-15 21 Nov 05:49:57 06:00:20 40° 254° (WSW) 06:10:17 29.354- 29.394
KAITUO 1B 21 Nov 05:55:49 05:58:35 19° 95° (E) 06:01:21 145.475/437.950
STARS 21 Nov 05:57:20 06:01:36 47° 260° (W) 06:05:53 437.465
AO-7 21 Nov 06:02:58 06:08:38 21° 305° (NW) 06:14:19 .
DOVE 4 21 Nov 06:05:24 06:10:13 40° 289° (WNW) 06:14:48 437.250
XW-2D 21 Nov 06:09:37 06:13:16 44° 99° (E) 06:16:56 145.860 - 145.880
HO-68 21 Nov 06:17:02 06:21:58 20° 93° (E) 06:26:52 435.675
STRAND 1 21 Nov 06:18:27 06:22:46 28° 68° (ENE) 06:27:05 437.568
YUBILEINY 21 Nov 06:19:40 06:28:23 74° 278° (W) 06:37:13 435.215
XW-2B 21 Nov 06:24:20 06:28:08 68° 101° (E) 06:31:55 145.730 - 145.750
NUDT-PHONESAT 21 Nov 06:39:54 06:43:36 73° 100° (E) 06:47:19 437.300
SO-50 21 Nov 06:41:13 06:45:38 41° 55° (NE) 06:50:04 436.795
XW-2C 21 Nov 06:50:00 06:53:43 51° 285° (WNW) 06:57:25 145.795 - 145.815
CUTE 1.7 + AOD 2 21 Nov 06:51:26 06:55:10 29° 96° (E) 06:58:55 437.475
LilacSat-2 21 Nov 06:51:53 06:55:33 45° 285° (WNW) 06:59:14 437.200
CUTE-I 21 Nov 06:53:42 06:59:06 87° 282° (WNW) 07:04:26 437.470
XW-2F 21 Nov 07:00:56 07:04:30 40° 286° (WNW) 07:08:04 145.980 - 146.000
UWE-3 21 Nov 07:08:46 07:10:43 13° 92° (E) 07:12:41 435.000/436.395/437.385
SEEDS 21 Nov 07:21:55 07:25:55 39° 98° (E) 07:29:54 437.485
KAITUO 1B 21 Nov 07:29:27 07:32:28 23° 289° (WNW) 07:35:28 145.475/437.950
AAUSAT CUBESAT 2 21 Nov 07:29:41 07:32:47 20° 94° (E) 07:35:51 437.432
FO-29 21 Nov 07:31:51 07:37:50 39° 67° (ENE) 07:44:29 435.910
XW-2D 21 Nov 07:45:55 07:47:01 11° 293° (WNW) 07:48:06 145.860 - 145.880
CUBEBUG 2 21 Nov 07:46:18 07:50:28 75° 102° (ESE) 07:54:35 437.445
AO-73 21 Nov 07:49:35 07:52:26 18° 94° (E) 07:55:17 145.935
STRAND 1 21 Nov 07:57:17 08:01:47 31° 263° (W) 08:06:20 437.568
HO-68 21 Nov 08:03:03 08:10:10 68° 289° (WNW) 08:17:15 435.675
XW-2A 21 Nov 08:03:17 08:06:37 61° 101° (ESE) 08:09:56 145.665 - 145.685
Oscar 11 21 Nov 08:06:00 08:09:05 19° 94° (E) 08:12:12 .
SO-50 21 Nov 08:22:26 08:25:47 20° 250° (WSW) 08:29:09 436.795
YUBILEINY 21 Nov 08:23:32 08:26:48 12° 298° (WNW) 08:30:06 435.215
CUTE 1.7 + AOD 2 21 Nov 08:27:39 08:30:47 20° 291° (WNW) 08:33:56 437.475
ZACube-1 21 Nov 08:33:35 08:37:43 73° 101° (ESE) 08:41:54 437.345
CUTE-I 21 Nov 08:37:46 08:38:16 10° 300° (WNW) 08:38:47 437.470
UWE-3 21 Nov 08:43:28 08:47:21 40° 287° (WNW) 08:51:14 435.000/436.395/437.385
SEEDS 21 Nov 08:58:46 09:01:14 15° 293° (WNW) 09:03:41 437.485
PCSat 21 Nov 09:02:53 09:07:28 27° 54° (NE) 09:12:00 145.827
AAUSAT CUBESAT 2 21 Nov 09:04:36 09:08:11 28° 289° (WNW) 09:11:46 437.432
Max Valier Satellite 21 Nov 09:08:48 09:09:35 11° 92° (E) 09:10:20 145.860
FO-29 21 Nov 09:17:01 09:22:49 35° 266° (W) 09:29:19 435.910
UNISAT 6 21 Nov 09:20:33 09:25:07 68° 75° (ENE) 09:29:35 437.425
TIGRISAT 21 Nov 09:24:53 09:29:27 69° 75° (ENE) 09:33:56 435.000
AO-73 21 Nov 09:25:03 09:28:41 30° 288° (WNW) 09:32:19 145.935
FALCONSAT 3 21 Nov 09:28:59 09:32:08 27° 157° (SSE) 09:35:18 435.103
DELFI C3 21 Nov 09:34:51 09:38:36 38° 98° (E) 09:42:19 145.870
Oscar 11 21 Nov 09:41:25 09:45:14 31° 289° (WNW) 09:49:03 .
HO-68 21 Nov 09:54:35 09:56:34 11° 307° (NW) 09:58:32 435.675
PRISM 21 Nov 10:19:30 10:23:35 74° 257° (WSW) 10:27:45 437.425
EO-88 21 Nov 10:38:08 10:41:45 63° 284° (WNW) 10:45:21 145.990 - 145.960
DUCHIFAT 1 21 Nov 10:38:59 10:40:45 12° 66° (ENE) 10:42:30 145.980
Max Valier Satellite 21 Nov 10:40:06 10:43:32 38° 286° (WNW) 10:46:58 145.860
AIST 2D 21 Nov 10:40:35 10:43:55 48° 75° (ENE) 10:47:16 435.315
EO-79 21 Nov 10:44:58 10:48:01 20° 69° (ENE) 10:51:05 145.935-145.965
PCSat 21 Nov 10:45:55 10:50:54 38° 250° (WSW) 10:55:52 145.827
NANOSAT C BR1 21 Nov 10:48:16 10:51:13 19° 68° (ENE) 10:54:10 145.865
ESTCUBE 1 21 Nov 10:54:44 10:57:33 16° 93° (E) 11:00:22 437.505/2401.250
POLYITAN 1 21 Nov 10:59:38 11:03:17 28° 71° (ENE) 11:06:55 437.675
LO-87 21 Nov 11:02:46 11:05:41 24° 97° (E) 11:08:34 145.935 - 145.965
FALCONSAT 3 21 Nov 11:07:18 11:10:58 69° 171° (S) 11:14:39 435.103
DELFI C3 21 Nov 11:10:55 11:12:58 14° 293° (WNW) 11:15:01 145.870
QB50P2 21 Nov 11:22:19 11:26:31 60° 75° (ENE) 11:30:41 145.880/145.840
BEESAT 3 21 Nov 11:25:48 11:29:15 28° 54° (NE) 11:32:37 437.485
BUGSAT 1 21 Nov 11:31:29 11:32:53 11° 65° (ENE) 11:34:16 437.445
Gurwin Techsat 1B 21 Nov 11:57:22 11:58:42 11° 61° (ENE) 12:00:03 435.225
AO-85 21 Nov 11:59:30 12:01:14 12° 45° (NE) 12:02:59 145.980
SPROUT 21 Nov 12:10:25 12:13:56 25° 96° (E) 12:17:25 437.525
DUCHIFAT 1 21 Nov 12:11:51 12:15:56 49° 260° (W) 12:20:02 145.980
EO-79 21 Nov 12:19:48 12:23:32 30° 263° (W) 12:27:18 145.935-145.965
NANOSAT C BR1 21 Nov 12:22:54 12:26:41 31° 263° (W) 12:30:27 145.865
ESTCUBE 1 21 Nov 12:30:14 12:34:29 40° 288° (WNW) 12:38:43 437.505/2401.250
POLYITAN 1 21 Nov 12:35:52 12:39:01 20° 265° (W) 12:42:11 437.675
LO-87 21 Nov 12:36:38 12:38:52 16° 291° (WNW) 12:41:04 145.935 - 145.965
BEESAT 2 21 Nov 12:37:15 12:41:09 48° 57° (ENE) 12:44:59 435.950
O/OREOS (USA 219) 21 Nov 12:40:13 12:43:40 21° 101° (E) 12:47:08 437.305
FALCONSAT 3 21 Nov 12:46:20 12:50:01 74° 187° (S) 12:53:43 435.103
VELOX 1 21 Nov 12:49:49 12:54:05 45° 99° (E) 12:58:20 145.980
BUGSAT 1 21 Nov 13:03:37 13:07:44 53° 260° (W) 13:11:50 437.445
BEESAT 3 21 Nov 13:03:41 13:06:34 20° 249° (WSW) 13:09:25 437.485
Oscar 19 21 Nov 13:05:51 13:10:57 75° 75° (ENE) 13:16:04 437.125/150
AO-7 21 Nov 13:15:39 13:20:53 19° 54° (NE) 13:26:07 .
Gurwin Techsat 1B 21 Nov 13:32:31 13:37:50 87° 252° (WSW) 13:43:12 435.225
DX 1 21 Nov 13:34:57 13:38:48 30° 97° (E) 13:42:37 434.975-435.025
AO-85 21 Nov 13:37:25 13:42:13 86° 57° (ENE) 13:47:21 145.980
SPROUT 21 Nov 13:46:19 13:49:41 23° 291° (WNW) 13:53:00 437.525
M-CUBED/EXP-1 PRIME 21 Nov 14:14:59 14:18:28 84° 257° (WSW) 14:22:13 437.505
UKube-1 21 Nov 14:16:13 14:20:28 55° 101° (E) 14:24:42 .
BEESAT 2 21 Nov 14:16:55 14:18:23 12° 252° (WSW) 14:19:53 435.950
O/OREOS (USA 219) 21 Nov 14:18:44 14:22:50 32° 296° (WNW) 14:26:58 437.305
50 SAT 21 Nov 14:19:15 14:22:23 49° 285° (WNW) 14:25:29 437.505
JUGNU 21 Nov 14:24:20 14:25:47 11° 168° (SSE) 14:27:14 437.505
FALCONSAT 3 21 Nov 14:25:34 14:28:54 32° 201° (SSW) 14:32:14 435.103
VELOX 1 21 Nov 14:27:35 14:30:07 15° 294° (WNW) 14:32:38 145.980
Oscar 19 21 Nov 14:49:48 14:50:44 10° 269° (W) 14:51:41 437.125/150
ITAMSAT 1 21 Nov 14:58:53 15:03:55 50° 72° (ENE) 15:08:58 435.822/435.867
AO-7 21 Nov 15:04:13 15:12:31 89° 72° (ENE) 15:20:52 .
NO-84 21 Nov 15:11:26 15:15:00 73° 315° (NW) 15:18:54 435.350 FM
DX 1 21 Nov 15:11:28 15:14:46 21° 292° (WNW) 15:18:03 434.975-435.025
BEESAT 21 Nov 15:17:18 15:21:34 33° 98° (E) 15:25:50 436.000
ITUPSAT 1 21 Nov 15:27:02 15:31:31 41° 99° (E) 15:35:59 437.325
DOVE 4 21 Nov 15:31:35 15:34:41 16° 64° (ENE) 15:37:50 437.250
MOZHAYETS 4 21 Nov 15:36:34 15:41:08 76° 101° (E) 15:45:43
CUBESAT XI-V 21 Nov 15:49:36 15:53:16 22° 95° (E) 15:56:54 437.345
UKube-1 21 Nov 15:54:20 15:55:58 12° 296° (WNW) 15:57:36 .
JUGNU 21 Nov 16:10:42 16:13:58 15° 178° (S) 16:17:13 437.505
YUBILEINY 21 Nov 16:33:16 16:41:49 50° 78° (ENE) 16:50:17 435.215
CUTE-I 21 Nov 16:36:04 16:38:45 14° 62° (ENE) 16:41:26 437.470
ITAMSAT 1 21 Nov 16:40:16 16:43:36 17° 267° (W) 16:46:58 435.822/435.867
HO-68 21 Nov 16:46:28 16:48:44 12° 54° (NE) 16:51:00 435.675
XW-2D 21 Nov 16:49:25 16:51:32 15° 69° (ENE) 16:53:41 145.860 - 145.880
NO-84 21 Nov 16:51:15 16:53:02 13° 334° (NNW) 16:54:52 435.350 FM
BEESAT 21 Nov 16:55:27 16:59:08 23° 292° (WNW) 17:02:47 436.000
AO-7 21 Nov 17:01:37 17:06:09 16° 268° (W) 17:10:44 .
XW-2B 21 Nov 17:03:27 17:06:18 21° 71° (ENE) 17:09:09 145.730 - 145.750
ITUPSAT 1 21 Nov 17:05:45 17:09:00 19° 294° (WNW) 17:12:15 437.325
DOVE 4 21 Nov 17:06:55 17:11:46 55° 261° (W) 17:16:54 437.250
NUDT-PHONESAT 21 Nov 17:16:46 17:19:31 21° 71° (ENE) 17:22:17 437.300
KKS-1 21 Nov 17:25:54 17:30:16 52° 101° (E) 17:34:35 437.445
CUBESAT XI-V 21 Nov 17:26:27 17:30:36 32° 289° (WNW) 17:34:44 437.345
XW-2C 21 Nov 17:28:15 17:31:48 45° 75° (ENE) 17:35:23 145.795 - 145.815
LilacSat-2 21 Nov 17:30:38 17:34:18 54° 75° (ENE) 17:37:58 437.200
XW-2F 21 Nov 17:38:29 17:42:06 58° 76° (ENE) 17:45:46 145.980 - 146.000
CUTE 1.7 + AOD 2 21 Nov 17:42:32 17:44:59 15° 67° (ENE) 17:47:27 437.475
STARS 21 Nov 17:49:10 17:53:13 35° 99° (E) 17:57:13 437.465
RS-15 21 Nov 17:55:36 18:06:55 46° 108° (ESE) 18:18:16 29.354- 29.394
SRMSAT 21 Nov 17:56:22 17:59:03 13° 171° (S) 18:01:42 437.500
JUGNU 21 Nov 17:59:27 18:02:10 13° 188° (S) 18:04:51 437.505
KAITUO 1B 21 Nov 18:05:35 18:09:15 77° 260° (W) 18:12:56 145.475/437.950
SEEDS 21 Nov 18:11:33 18:14:33 20° 69° (ENE) 18:17:34 437.485
CUTE-I 21 Nov 18:12:48 18:18:08 70° 258° (WSW) 18:23:31 437.470
XW-2D 21 Nov 18:22:07 18:25:26 30° 263° (W) 18:28:45 145.860 - 145.880
HO-68 21 Nov 18:28:02 18:35:09 70° 72° (ENE) 18:42:19 435.675
YUBILEINY 21 Nov 18:30:42 18:38:10 32° 275° (W) 18:45:37 435.215
XW-2A 21 Nov 18:33:17 18:34:47 13° 69° (ENE) 18:36:17 145.665 - 145.685
STRAND 1 21 Nov 18:34:00 18:35:05 11° 90° (E) 18:36:12 437.568
XW-2B 21 Nov 18:37:31 18:40:20 20° 265° (W) 18:43:11 145.730 - 145.750
CUBEBUG 2 21 Nov 18:41:08 18:45:32 44° 74° (ENE) 18:49:47 437.445
AO-73 21 Nov 18:44:23 18:45:29 11° 66° (ENE) 18:46:36 145.935
NUDT-PHONESAT 21 Nov 18:50:32 18:53:15 20° 265° (W) 18:55:59 437.300
Oscar 11 21 Nov 19:00:11 19:01:22 11° 65° (ENE) 19:02:34 .
KKS-1 21 Nov 19:04:15 19:06:19 13° 295° (WNW) 19:08:23 437.445
CUTE 1.7 + AOD 2 21 Nov 19:16:34 19:20:28 38° 262° (W) 19:24:24 437.475
STARS 21 Nov 19:26:17 19:29:14 18° 293° (WNW) 19:32:12 437.465
ZACube-1 21 Nov 19:26:30 19:30:32 39° 74° (ENE) 19:34:30 437.345
UWE-3 21 Nov 19:36:52 19:41:20 76° 258° (WSW) 19:45:43 435.000/436.395/437.385
ISS 21 Nov 19:41:47 19:43:59 17° 129° (SE) 19:46:12 437.550
SRMSAT 21 Nov 19:43:58 19:47:24 16° 181° (S) 19:50:50 437.500
SEEDS 21 Nov 19:46:24 19:50:00 28° 263° (W) 19:53:39 437.485
AAUSAT CUBESAT 2 21 Nov 19:50:59 19:55:03 62° 259° (W) 19:59:10 437.432
XW-2A 21 Nov 20:04:21 20:07:11 26° 263° (W) 20:10:03 145.665 - 145.685
RS-15 21 Nov 20:07:18 20:19:14 53° 308° (NW) 20:31:09 29.354- 29.394
STRAND 1 21 Nov 20:09:38 20:14:45 73° 285° (WNW) 20:19:48 437.568
AO-73 21 Nov 20:16:58 20:21:13 57° 260° (W) 20:25:24 145.935
DELFI C3 21 Nov 20:18:24 20:20:49 16° 68° (ENE) 20:23:14 145.870
HO-68 21 Nov 20:18:33 20:23:22 19° 267° (W) 20:28:14 435.675
CUBEBUG 2 21 Nov 20:19:39 20:22:16 15° 267° (W) 20:24:50 437.445
FO-29 21 Nov 20:28:34 20:36:03 47° 97° (E) 20:42:57 435.910
nSIGHT-1 21 Nov 20:31:05 20:34:18 85° 136° (SE) 20:37:31 .
Oscar 11 21 Nov 20:32:45 20:36:58 58° 260° (W) 20:41:12 .
SO-50 21 Nov 20:53:44 20:57:12 23° 111° (ESE) 21:00:42 436.795
ZACube-1 21 Nov 21:04:27 21:06:56 15° 267° (W) 21:09:23 437.345
EO-88 21 Nov 21:12:57 21:16:11 32° 73° (ENE) 21:19:26 145.990 - 145.960
Max Valier Satellite 21 Nov 21:15:37 21:19:11 53° 76° (ENE) 21:22:45 145.860
UNISAT 6 21 Nov 21:16:05 21:18:42 16° 93° (E) 21:21:18 437.425
ISS 21 Nov 21:17:09 21:20:14 38° 324° (NW) 21:23:20 437.550
TIGRISAT 21 Nov 21:20:15 21:22:53 16° 93° (E) 21:25:31 435.000
SRMSAT 21 Nov 21:33:39 21:35:46 12° 191° (SSW) 21:37:53 437.500
NO-84 21 Nov 21:46:27 21:50:04 26° 36° (NE) 21:53:41 435.350 FM
DELFI C3 21 Nov 21:51:41 21:55:15 32° 263° (W) 21:58:51 145.870
ESTCUBE 1 21 Nov 21:53:20 21:54:43 11° 64° (ENE) 21:56:06 437.505/2401.250
PRISM 21 Nov 22:04:10 22:07:02 18° 95° (E) 22:09:52 437.425
nSIGHT-1 21 Nov 22:09:12 22:10:54 13° 335° (NNW) 22:12:36 .
FO-29 21 Nov 22:13:52 22:20:42 35° 295° (WNW) 22:27:12 435.910
RS-15 21 Nov 22:27:27 22:35:32 19° 338° (NNW) 22:43:32 29.354- 29.394
SO-50 21 Nov 22:33:26 22:37:27 32° 307° (NW) 22:41:31 436.795
EO-88 21 Nov 22:48:20 22:49:53 12° 267° (W) 22:51:28 145.990 - 145.960
UNISAT 6 21 Nov 22:51:37 22:55:30 35° 288° (WNW) 22:59:23 437.425
O/OREOS (USA 219) 21 Nov 22:52:05 22:55:57 27° 63° (ENE) 22:59:46 437.305
TIGRISAT 21 Nov 22:55:47 22:59:40 35° 288° (WNW) 23:03:31 435.000
SPROUT 21 Nov 23:02:04 23:04:27 15° 66° (ENE) 23:06:49 437.525
LO-87 21 Nov 23:08:13 23:11:48 62° 260° (W) 23:15:22 145.935 - 145.965
QB50P2 21 Nov 23:11:50 23:13:19 12° 92° (E) 23:14:47 145.880/145.840
NO-84 21 Nov 23:23:31 23:27:33 41° 233° (SW) 23:31:29 435.350 FM
ESTCUBE 1 21 Nov 23:26:31 23:30:55 62° 259° (W) 23:35:23 437.505/2401.250
PRISM 21 Nov 23:38:38 23:42:18 31° 289° (WNW) 23:45:57 437.425
AIST 2D 21 Nov 23:40:31 23:44:04 89° 280° (W) 23:47:36 435.315
PCSat 21 Nov 23:41:31 23:46:30 39° 110° (ESE) 23:51:32 145.827
VELOX 1 21 Nov 23:44:28 23:48:16 29° 70° (ENE) 23:52:06 145.980
DUCHIFAT 1 21 Nov 23:58:25 00:02:04 29° 97° (E) 00:05:40 145.980
EO-79 22 Nov 00:06:20 00:10:24 49° 100° (E) 00:14:26 145.935-145.965
NANOSAT C BR1 22 Nov 00:09:06 00:13:08 46° 99° (E) 00:17:08 145.865
POLYITAN 1 22 Nov 00:21:45 00:25:57 77° 103° (ESE) 00:30:07 437.675
DX 1 22 Nov 00:28:23 00:31:30 20° 67° (ENE) 00:34:39 434.975-435.025
O/OREOS (USA 219) 22 Nov 00:31:32 00:35:13 25° 258° (WSW) 00:38:51 437.305
SPROUT 22 Nov 00:35:52 00:39:56 42° 261° (W) 00:44:01 437.525
50 SAT 22 Nov 00:43:45 00:46:26 25° 72° (ENE) 00:49:08 437.505
QB50P2 22 Nov 00:45:17 00:49:19 47° 286° (WNW) 00:53:20 145.880/145.840
RS-15 22 Nov 00:47:57 00:55:05 17° 16° (NNE) 01:02:01 29.354- 29.394
BUGSAT 1 22 Nov 00:48:18 00:51:35 24° 96° (E) 00:54:50 437.445
